Theta_e
347 348 348 342 352 351 353 350 344 345 345 344 342 343 342 344 340 340 336 335 337 338 338 338 340 340 341 340 340 341 339 341 337 334 334 334 335 336 336 339 338 337 341 339 338 335 336 338 339
348 347 347 343 352 355 354 346 348 345 342 344 344 343 344 345 342 337 337 335 337 338 338 341 341 341 340 340 340 341 340 341 342 340 338 338 336 337 339 337 340 339 341 334 334 338 339 340 339
347 345 343 348 352 356 354 348 346 344 343 343 344 344 343 343 341 337 333 336 337 337 338 339 339 338 340 341 341 341 341 341 336 335 335 341 340 339 335 335 339 339 339 338 342 342 342 342 341
347 342 342 352 354 351 351 349 347 343 343 342 342 343 343 342 342 332 335 336 336 336 337 338 338 337 336 338 342 341 341 339 336 335 337 335 335 337 339 331 334 340 337 340 343 342 343 342 340
348 342 349 353 350 349 348 347 346 346 344 344 342 343 342 342 336 332 334 334 335 337 337 336 338 338 339 339 339 342 340 334 340 341 342 340 342 342 342 328 339 339 339 342 342 343 342 340 339
344 345 351 353 351 348 347 345 347 344 344 342 342 343 344 341 334 331 331 332 332 336 337 338 337 338 339 341 342 339 336 340 342 341 342 343 335 339 329 333 339 338 339 342 341 342 341 343 340
346 348 349 349 350 349 347 342 346 345 343 343 343 343 344 341 333 330 332 332 332 333 335 337 337 338 341 341 342 342 343 341 340 340 339 338 339 341 343 343 338 338 337 340 341 342 342 341 341
345 347 347 346 349 350 344 343 342 345 346 343 343 342 345 341 335 333 332 334 334 334 335 335 337 337 339 340 340 340 340 340 339 336 341 343 343 341 339 339 339 339 337 339 341 341 341 341 341
344 348 349 346 346 346 344 344 342 345 346 345 345 342 341 338 336 336 334 335 334 334 334 335 335 335 336 338 339 340 339 336 336 336 336 335 331 338 341 334 333 335 335 339 341 340 341 341 341
345 351 349 345 343 345 346 346 346 345 346 345 343 341 338 340 341 338 338 334 331 334 335 338 332 330 332 334 331 335 338 338 333 334 334 334 332 329 329 325 328 331 335 339 340 341 341 341 339
345 351 347 344 344 344 346 347 346 344 346 345 343 343 342 343 344 341 336 332 331 333 335 336 333 332 332 327 326 331 334 334 335 336 335 334 332 329 326 325 324 327 334 340 341 341 341 340 339
347 345 345 343 345 344 344 345 345 344 345 345 340 343 343 344 343 342 338 330 332 333 335 335 334 329 325 326 328 330 333 333 335 336 337 336 337 335 332 334 336 338 339 340 340 340 340 340 339
344 344 344 344 345 344 344 345 347 344 346 344 342 339 343 343 340 332 333 332 332 333 333 333 332 328 335 341 341 335 333 334 335 336 335 338 340 341 341 341 340 342 342 342 341 341 341 341 340
345 344 344 345 345 343 342 345 347 347 346 344 342 341 343 344 341 336 331 330 331 332 332 332 331 336 340 337 339 338 338 335 334 335 336 339 341 342 343 344 343 343 342 342 341 342 342 341 340
346 348 347 346 343 343 343 347 348 346 346 345 343 343 343 342 341 339 338 334 332 331 336 333 330 337 336 335 338 337 339 338 333 336 338 338 339 340 341 342 342 341 341 342 341 341 340 340 341
344 346 351 347 346 345 346 350 346 345 346 346 346 344 344 342 341 340 341 340 338 336 339 335 331 335 338 338 337 337 337 336 336 338 337 336 337 338 340 343 342 341 340 340 340 339 339 339 339
344 345 345 348 344 345 343 346 346 345 346 346 346 345 344 344 340 339 341 341 340 339 337 338 340 341 340 340 341 339 337 337 336 337 338 336 336 336 339 343 343 341 341 341 341 340 341 341 340
339 343 345 347 345 347 346 344 346 345 345 347 346 345 344 343 341 340 340 341 341 339 339 338 339 341 340 340 340 339 337 338 335 336 336 335 336 339 343 343 344 344 344 343 344 344 343 343 342
337 339 340 346 347 346 347 345 346 345 345 346 346 345 344 343 341 342 341 341 342 341 339 340 337 340 338 339 341 338 339 341 336 337 338 336 337 341 343 344 344 344 345 346 345 345 345 346 344
331 331 342 347 348 345 346 346 344 342 346 346 344 344 344 345 345 342 341 341 342 342 340 337 335 339 341 341 340 339 341 341 341 337 338 338 339 341 342 343 343 344 347 347 346 344 345 336 338
330 333 343 343 350 347 346 347 346 343 343 345 343 343 343 344 344 343 343 341 342 342 341 340 338 342 342 342 340 340 340 341 339 336 336 339 341 341 342 342 342 344 344 345 347 346 344 342 340
328 336 342 348 346 346 344 343 346 345 344 342 344 343 343 343 343 343 342 341 342 341 341 341 339 340 342 343 343 342 339 340 340 336 338 340 340 341 341 340 341 343 344 344 344 345 344 344 344
329 340 343 343 345 344 346 348 343 345 345 344 343 344 344 343 344 343 342 341 341 341 340 341 341 339 341 342 343 343 342 341 342 339 338 342 342 341 342 339 338 341 344 345 345 345 345 344 343
337 340 339 338 344 336 336 346 340 347 347 343 341 342 344 343 344 343 342 341 341 341 340 341 342 342 343 341 340 343 343 342 342 342 343 340 341 342 342 341 337 338 341 344 345 344 344 344 343
336 338 342 342 341 334 337 346 339 340 341 343 343 341 341 343 344 344 343 342 341 341 341 340 341 342 343 342 341 342 343 344 341 341 342 340 338 336 342 342 336 339 341 344 344 343 344 345 345
337 334 332 331 332 333 337 339 338 338 341 341 341 341 342 340 343 345 343 341 341 342 342 342 341 342 342 343 342 342 342 341 343 342 343 342 342 341 340 345 341 339 340 340 339 343 343 342 343
330 336 325 331 334 337 336 339 337 338 342 342 341 341 342 341 340 343 345 343 341 342 342 342 342 342 342 343 343 342 341 342 343 342 344 343 342 344 344 341 343 342 341 341 340 339 344 344 343
325 326 331 334 335 332 336 340 338 341 342 341 342 340 341 341 341 340 343 345 344 342 342 342 342 342 343 343 343 342 342 341 342 343 343 343 343 343 343 344 344 341 345 343 340 340 343 343 341
328 331 331 333 334 333 333 331 336 340 340 340 340 340 342 341 341 342 343 345 344 342 343 342 342 342 343 343 343 342 343 342 341 341 342 343 343 343 343 344 344 344 344 346 345 344 343 344 343
324 330 333 331 339 336 334 331 331 338 337 340 343 342 343 341 342 342 343 344 345 344 344 343 343 343 343 344 343 343 343 343 343 343 341 341 343 344 344 343 344 347 346 345 346 344 345 343 343
Wind_Speed
1 2 2 1 1 1 4 4 2 7 5 1 10 2 4 7 4 6 9 9 8 10 9 8 9 13 14 9 7 7 8 9 11 9 8 9 10 10 11 10 13 15 15 17 17 17 18 17 16
2 1 2 1 1 3 3 5 6 3 8 12 9 7 5 5 6 12 8 11 9 11 11 10 10 10 10 9 7 8 9 10 11 10 8 8 11 11 9 13 15 16 17 17 18 18 17 17 17
2 2 2 2 2 4 4 9 9 13 13 6 4 6 4 4 9 7 13 14 15 16 15 14 12 12 11 8 9 13 13 13 13 11 11 11 14 14 14 14 15 17 17 18 17 17 15 13 14
3 1 3 1 10 4 3 3 6 10 7 5 10 8 7 9 4 13 17 17 17 17 16 15 13 12 13 11 12 15 16 14 13 12 12 13 14 13 14 16 17 16 16 16 17 17 15 15 13
4 1 3 3 3 4 3 5 6 5 6 6 2 6 7 4 12 17 18 18 17 18 16 14 13 13 14 12 13 14 18 17 12 12 14 15 16 16 14 16 16 16 16 17 16 14 15 13 13
3 1 3 2 5 3 3 6 5 9 7 7 10 8 3 8 17 17 16 17 16 15 15 12 10 12 12 13 16 15 17 17 16 14 15 21 23 14 16 17 16 16 15 15 14 15 14 13 13
4 3 2 2 5 3 2 4 6 6 7 7 6 4 5 10 19 17 15 14 13 13 13 13 12 13 10 15 16 16 17 17 17 18 23 25 20 17 16 15 14 14 14 14 13 13 13 13 14
4 3 5 1 4 2 1 4 2 6 7 6 3 5 7 15 19 17 14 12 11 13 13 13 12 9 10 12 13 15 16 18 18 18 19 18 17 17 15 12 12 12 14 14 14 14 13 13 14
2 2 2 4 6 3 1 3 3 2 3 3 4 6 13 22 19 17 16 14 12 12 13 14 12 11 12 11 12 13 14 16 17 17 16 15 16 15 13 14 13 13 15 15 15 13 12 11 11
2 2 2 2 6 5 8 2 1 2 8 4 8 12 20 21 18 17 15 14 13 12 12 11 12 12 12 10 10 11 13 14 15 14 15 15 14 14 14 14 13 13 14 14 14 11 10 9 10
2 2 3 5 12 11 7 0 2 2 10 3 10 17 19 19 16 15 15 13 12 11 11 10 10 10 10 11 11 11 13 14 14 13 12 12 14 15 15 15 15 15 15 13 11 11 8 8 9
3 6 5 11 13 10 4 1 4 5 1 5 13 17 17 16 14 13 13 14 13 12 10 9 10 11 12 14 12 12 11 13 12 11 10 13 14 14 15 16 16 17 14 12 10 8 7 6 7
7 7 10 12 10 12 5 3 8 9 3 5 17 17 15 13 13 13 12 12 13 12 11 9 10 14 15 12 11 10 11 10 10 9 11 13 14 15 14 14 14 13 11 9 7 5 4 2 4
7 14 14 7 11 7 5 2 1 4 8 12 18 18 14 13 13 13 13 13 12 12 11 11 12 14 12 8 8 7 8 9 10 9 11 12 12 12 11 11 12 13 11 10 8 8 7 7 5
15 9 6 7 7 4 10 3 4 3 7 14 16 14 14 13 14 13 11 12 11 12 12 11 12 14 9 8 9 8 9 8 10 10 10 8 9 8 8 8 10 11 11 9 8 6 5 4 3
4 4 3 5 5 3 6 3 6 6 10 13 15 15 14 15 14 14 12 12 12 12 12 12 13 13 10 10 8 7 6 9 10 8 6 7 7 7 7 8 9 11 9 7 3 2 1 2 2
3 2 3 5 6 4 7 1 6 12 13 12 15 16 16 14 17 16 14 12 12 14 14 16 14 12 9 9 6 5 6 7 10 8 5 9 8 8 7 7 8 9 6 5 3 2 2 1 1
3 3 2 3 7 6 7 4 7 13 15 14 17 18 16 15 20 17 17 14 12 12 15 15 17 14 11 12 10 10 10 8 6 9 7 10 10 8 7 7 6 5 5 5 4 2 2 4 5
3 2 1 1 6 6 7 4 9 13 16 13 14 21 19 19 17 16 17 17 15 14 12 15 16 15 11 14 13 12 10 8 8 9 8 11 11 8 8 8 6 6 4 4 4 3 2 4 6
6 4 0 4 6 3 4 6 8 9 17 17 18 18 20 18 18 22 21 21 19 17 14 13 17 16 13 13 11 10 8 9 9 10 12 11 12 10 9 9 9 6 4 2 1 1 4 5 5
8 4 4 2 5 2 2 2 5 7 11 14 20 20 15 18 19 21 22 23 22 21 19 13 18 17 16 14 11 11 10 8 9 16 11 9 10 10 9 10 11 9 5 3 1 2 3 5 6
10 6 9 9 4 1 1 2 4 10 12 11 20 22 24 20 22 23 23 26 26 23 21 17 17 18 16 16 14 12 11 8 11 12 10 10 11 7 8 9 13 11 8 5 3 3 5 7 7
2 9 9 7 2 2 2 4 5 4 11 17 21 27 25 24 23 26 27 28 26 25 24 20 17 18 16 16 16 14 12 10 8 12 11 11 12 10 7 5 10 12 11 8 7 5 4 3 3
13 11 7 3 2 3 3 3 2 4 4 7 19 26 26 25 26 25 26 27 26 25 25 24 21 20 18 17 18 17 12 11 10 12 11 12 12 12 9 6 7 12 10 9 9 9 7 6 5
4 6 2 3 3 3 2 3 4 3 3 5 8 21 28 27 27 27 28 29 29 29 25 24 25 23 20 19 17 18 15 14 11 11 10 9 12 13 12 7 5 11 9 9 8 7 6 5 6
6 3 3 5 4 1 1 3 1 3 3 3 7 14 20 30 31 30 32 33 34 30 29 26 25 25 24 22 19 18 18 18 17 14 13 13 9 8 10 8 6 12 11 8 10 10 9 8 8
5 6 2 5 1 3 1 3 6 4 7 9 4 1 9 20 29 29 28 31 34 32 30 28 28 25 22 23 23 21 18 19 19 16 14 12 13 11 8 10 10 9 10 11 10 11 9 7 8
3 8 4 2 3 4 2 4 4 4 4 7 10 4 3 8 16 24 26 30 30 32 30 28 28 26 23 23 24 23 21 20 21 20 18 17 14 15 13 12 12 13 11 9 10 11 11 9 8
4 4 4 4 2 3 3 2 5 6 2 3 5 6 5 4 8 14 19 21 32 31 30 29 28 28 27 26 25 25 24 22 23 23 22 21 18 15 15 15 13 13 14 12 11 12 13 12 11
1 2 5 5 5 1 3 3 3 5 6 3 2 3 4 7 11 13 14 17 22 29 29 30 29 29 28 26 27 24 26 26 25 23 24 23 21 20 18 18 16 14 15 18 17 15 13 12 10
Wind_Direction
70 69 60 54 199 79 80 41 76 116 134 4 147 166 109 45 23 87 135 113 121 144 145 152 164 183 192 201 202 162 152 148 144 145 141 145 137 134 125 126 114 117 117 121 120 118 113 110 103
36 25 48 53 60 117 77 34 73 81 123 122 103 99 73 77 68 115 108 115 121 134 136 133 143 146 168 188 190 176 161 146 128 122 128 149 145 141 145 129 118 117 115 117 116 114 112 105 100
53 19 1 70 89 93 102 72 73 99 121 123 99 63 67 70 116 108 120 118 120 118 116 118 119 124 128 141 165 153 142 128 118 120 108 109 134 131 126 129 126 120 115 113 114 112 105 99 92
168 28 57 64 104 70 87 55 357 127 112 96 117 79 77 112 86 130 123 123 122 114 109 108 110 109 105 103 132 138 134 123 126 128 123 122 123 125 125 131 122 118 115 116 111 105 101 94 85
150 71 84 107 74 96 81 41 29 75 93 80 146 111 99 113 128 128 126 127 121 116 111 112 106 106 99 107 104 142 124 117 126 124 123 127 122 121 122 126 123 118 114 115 108 105 95 92 86
76 40 81 91 107 105 84 13 3 62 86 109 96 105 96 131 147 136 132 130 124 120 118 115 107 103 94 106 107 108 106 117 119 111 112 137 126 121 125 126 125 122 124 123 114 101 102 92 86
103 72 58 55 121 135 66 11 48 44 100 82 119 88 137 146 156 146 143 139 133 127 120 117 117 115 109 105 105 115 121 121 117 107 102 112 125 130 128 127 130 130 128 124 114 111 105 93 77
83 88 134 192 177 162 2 1 283 70 60 121 95 157 168 167 161 162 159 151 142 136 129 127 122 110 103 112 109 112 120 125 118 112 113 125 130 132 133 132 130 128 129 127 117 119 108 89 82
89 102 136 154 164 148 55 4 285 5 121 56 345 153 159 155 158 162 168 162 155 149 141 138 137 136 136 131 124 121 128 129 125 119 121 121 122 119 116 130 129 129 131 127 126 123 106 94 80
33 65 88 93 152 152 136 153 89 346 156 83 90 133 157 158 157 162 167 168 162 156 148 138 135 140 138 131 126 128 120 125 117 115 116 117 117 118 118 120 125 131 133 129 127 118 107 92 85
80 56 116 131 122 120 120 168 137 230 180 186 166 152 160 163 168 169 167 165 161 160 153 141 137 135 132 130 130 134 126 127 124 119 116 110 107 108 114 116 122 129 131 131 121 117 106 99 95
91 54 123 135 137 132 91 135 206 169 66 198 177 162 161 168 173 177 173 168 166 166 161 149 144 134 125 122 124 131 132 132 129 126 118 107 107 112 113 115 115 117 119 123 125 119 107 98 99
81 88 107 134 140 155 155 28 183 193 232 177 172 172 168 172 177 179 176 173 175 174 169 158 148 136 130 122 118 127 134 137 138 130 117 114 113 112 114 115 118 122 128 130 133 123 93 104 114
101 108 114 140 140 150 166 332 288 134 145 150 165 178 176 178 181 182 185 181 182 182 180 167 159 150 138 128 127 132 142 147 144 133 128 125 123 122 121 127 132 134 135 131 126 111 93 83 108
115 109 122 136 142 131 131 325 297 126 155 163 174 184 184 187 191 195 192 185 185 185 184 175 166 161 153 148 125 120 128 153 154 143 137 132 145 137 122 135 151 148 139 133 130 126 110 96 86
115 122 154 175 182 137 207 162 152 192 171 183 188 189 198 199 204 202 207 198 187 193 193 188 175 167 160 153 143 135 139 163 164 162 171 173 171 159 132 137 167 172 166 167 180 210 228 240 16
187 149 164 174 216 168 206 182 173 171 178 194 201 201 207 207 214 211 217 211 202 203 197 197 191 184 191 198 185 171 159 146 183 175 188 179 171 165 148 146 161 175 177 186 194 208 121 83 47
114 129 183 204 183 203 201 197 178 191 194 201 205 208 213 217 216 218 222 222 218 219 213 205 208 211 220 209 202 182 173 171 172 174 173 184 173 164 160 144 147 163 174 188 200 227 281 304 307
66 87 78 160 157 187 214 221 198 197 209 203 204 210 215 223 223 226 227 228 225 229 218 211 206 201 194 189 181 179 177 169 172 173 167 166 167 171 166 159 162 164 180 176 188 209 282 292 290
283 317 12 106 152 214 177 236 207 201 209 207 194 208 217 234 235 233 230 229 224 228 222 209 200 203 197 190 190 182 178 183 187 179 168 171 176 178 170 173 170 174 164 100 104 94 1 359 339
239 246 175 110 154 210 233 233 208 206 225 218 210 209 221 229 233 236 231 227 228 222 222 217 200 202 198 192 193 193 192 187 182 173 174 181 183 180 179 184 182 182 174 150 154 314 330 342 341
269 163 147 135 178 65 271 343 228 217 230 220 224 222 221 226 228 229 228 223 221 219 221 221 211 209 210 209 206 205 197 199 196 186 192 195 195 186 195 197 199 200 199 199 210 265 301 304 313
292 164 136 130 155 233 72 283 140 204 237 227 220 224 225 227 222 218 221 219 220 218 221 221 220 214 219 215 213 209 208 211 202 189 193 192 193 198 194 208 216 214 214 214 227 236 265 292 305
136 110 88 86 348 278 29 308 177 186 218 241 222 227 225 221 225 224 222 220 221 218 220 225 225 221 223 221 215 213 219 220 219 202 197 205 200 204 207 221 234 215 220 221 229 235 240 253 273
160 170 134 210 224 308 17 248 294 250 229 259 239 229 228 220 220 220 222 216 217 217 216 222 227 226 223 223 218 219 221 224 227 219 211 212 222 219 216 227 245 196 205 216 223 232 233 252 274
187 248 219 248 240 287 181 243 74 307 288 317 272 247 229 221 219 217 220 219 218 220 222 223 225 224 225 227 227 227 228 232 232 232 230 229 223 228 219 214 208 211 218 229 233 242 253 262 272
149 207 63 115 106 247 333 274 253 235 259 292 333 238 217 218 223 221 222 222 218 224 222 217 219 222 224 226 230 231 234 229 227 230 232 231 231 226 227 230 225 225 228 238 242 234 244 258 270
223 131 178 213 200 261 215 283 276 272 267 257 276 340 318 250 233 228 225 224 223 225 222 220 220 222 227 227 227 231 233 233 231 238 242 241 242 233 243 235 240 234 232 236 238 245 247 252 269
148 173 70 104 317 234 264 263 219 236 195 287 281 295 301 300 256 238 229 227 227 226 224 223 223 228 230 234 233 234 235 235 238 241 244 239 240 242 237 242 240 233 237 240 248 254 255 257 268
174 156 183 234 189 259 304 269 181 212 191 210 195 252 300 303 282 253 234 222 221 230 230 226 224 233 234 237 240 245 243 243 242 245 240 242 245 243 248 249 237 243 244 246 249 257 264 254 263